Location: *
(53.1170°S, 163.8174°W)
Time: 05:03:20
(UTC+00:00)

Daily predictions for brighter satellites

Satellite Brightness Start Highest point End
(mag) Time Altitude Azimuth Time Altitude Azimuth Time Altitude Azimuth
SL-16 R/B 2.4 03:22:25 10° NNW 03:28:08 85° WSW 03:33:56 10° SSE
STARLINK-1376 3.0 03:26:39 10° W 03:29:52 88° NNW 03:33:06 10° E
STARLINK-1311 4.2 03:27:24 10° NNW 03:30:07 29° NNE 03:32:50 10° E
STARLINK-1360 2.9 03:26:58 10° W 03:30:11 88° N 03:33:24 10° E
STARLINK-1361 3.0 03:27:17 10° W 03:30:30 88° NNW 03:33:43 10° E
COSMO-SKYMED 1 2.8 03:26:32 10° NE 03:30:48 52° ESE 03:35:08 10° S
STARLINK-1367 2.9 03:27:40 10° W 03:30:51 88° NNW 03:34:02 10° E
STARLINK-1366 2.9 03:28:01 10° W 03:31:15 88° N 03:34:28 10° E
STARLINK-1372 3.3 03:27:32 10° W 03:31:16 89° NE 03:34:58 10° E
Cosmos 2228 Rocket 3.4 03:29:34 10° S 03:34:05 50° ESE 03:38:31 10° NNE
STARLINK-1378 3.4 03:30:30 10° W 03:34:15 89° N 03:38:00 10° E
STARLINK-42 3.9 03:32:16 10° NW 03:35:20 39° NNE 03:38:25 10° E
STARLINK-1316 4.3 03:32:54 10° NW 03:35:46 30° NNE 03:38:38 10° E
STARLINK-1329 3.3 03:32:47 10° W 03:36:32 89° N 03:40:16 10° E
STARLINK-1257 4.2 03:33:49 10° NW 03:36:42 31° NNE 03:39:34 10° E
STARLINK-1379 3.3 03:33:06 10° W 03:36:50 89° NNW 03:40:33 10° E
STARLINK-1256 4.2 03:34:42 10° NW 03:37:35 31° NNE 03:40:29 10° E
Cosmos 1633 3.4 03:34:32 10° NNE 03:37:49 32° E 03:41:09 10° SSE
USA 32 4.1 03:33:02 10° N 03:38:16 62° E 03:43:33 10° SSE
STARLINK-1213 4.2 03:35:36 10° NW 03:38:29 32° NNE 03:41:23 10° E
ATLAS CENTAUR R/B 3.2 03:35:07 10° SW 03:38:32 20° S 03:42:05 10° SE
STARLINK-1263 4.2 03:36:29 10° NW 03:39:22 32° NNE 03:42:18 10° E
STARLINK-1362 3.4 03:35:51 10° W 03:39:38 88° N 03:43:24 10° E
STARLINK-1365 3.4 03:36:04 10° W 03:39:51 88° N 03:43:38 10° E
STARLINK-1259 4.2 03:37:21 10° NW 03:40:16 32° NNE 03:43:11 10° E
STARLINK-1265 4.1 03:37:54 10° NW 03:40:47 32° NNE 03:43:40 10° E
STARLINK-1285 4.1 03:38:15 10° NW 03:41:09 33° NNE 03:44:05 10° E
Cosmos 1933 4.0 03:37:03 10° SSW 03:41:10 61° W 03:45:13 10° N
STARLINK-1268 4.1 03:38:57 10° NW 03:41:50 33° NNE 03:44:46 10° E
Meteor 2-3 Rocket 3.9 03:36:29 10° N 03:42:15 67° E 03:48:07 10° SSE
STARLINK-1373 3.4 03:38:41 10° W 03:42:28 88° N 03:46:14 10° E
STARLINK-1296 4.1 03:40:04 10° NW 03:42:59 33° NNE 03:45:56 10° E
STARLINK-1260 4.1 03:40:57 10° NW 03:43:53 34° NNE 03:46:49 10° E
STARLINK-1318 4.1 03:41:51 10° NW 03:44:47 34° NNE 03:47:44 10° E
STARLINK-1390 3.4 03:41:24 10° W 03:45:09 87° N 03:48:54 10° E
STARLINK-1275 4.0 03:42:41 10° NW 03:45:38 34° NNE 03:48:35 10° E
Cosmos 2278 Rocket 2.6 03:40:16 10° SSW 03:45:44 43° SE 03:51:09 10° ENE
Cosmos 2333 Rocket 3.1 03:41:08 10° NNE 03:46:07 31° ENE 03:51:09 10° SE
STARLINK-1309 4.0 03:43:35 10° NW 03:46:32 35° NNE 03:49:29 10° E
FENGYUN 3A 3.9 03:41:49 10° SSE 03:47:14 54° E 03:52:34 10° N
BREEZE-M DEB (TANK) 4.3 03:44:51 10° WNW 03:47:25 23° N 03:49:42 10° NE
STARLINK-1282 4.0 03:44:30 10° NW 03:47:27 35° NNE 03:50:23 10° E
Cosmos 1844 Rocket 3.4 03:42:05 10° SW 03:47:43 63° WNW 03:53:19 10° NNE
Cosmos 1151 Rocket 4.2 03:44:03 10° SSW 03:48:15 47° W 03:52:24 10° NNW
STARLINK-1313 3.9 03:45:28 10° NW 03:48:28 38° NNE 03:51:23 11° E
STARLINK-62 4.3 03:45:49 10° NNW 03:48:43 30° NNE 03:51:36 10° E
STARLINK-1279 3.8 03:46:26 10° NW 03:49:27 39° NNE 03:52:20 11° E
Okean O Rocket 3.2 03:46:42 10° SE 03:49:31 16° E 03:52:17 10° NE
STARLINK-1298 3.9 03:47:09 10° NW 03:50:08 36° NNE 03:52:58 11° E
STARLINK-34 4.3 03:47:44 10° NW 03:50:39 31° NNE 03:53:28 11° E
STARLINK-1301 4.0 03:47:27 10° NW 03:50:50 42° NNE 03:54:03 11° E
Cosmos 405 3.7 03:47:41 10° S 03:51:02 33° ESE 03:54:18 10° NE
STARLINK-1293 3.9 03:48:05 10° NW 03:51:04 37° NNE 03:53:53 11° E
Cosmos 1743 Rocket 3.7 03:46:47 10° N 03:51:07 54° E 03:55:32 10° SSE
BREEZE-M DEB (TANK) 2.5 03:48:33 10° WNW 03:51:29 39° N 03:53:35 10° ENE
METEOR-M 4.3 03:46:31 10° SSE 03:51:51 54° E 03:57:07 10° N
STARLINK-55 3.5 03:48:58 10° NW 03:52:10 52° NNE 03:55:06 12° E
STARLINK-1255 3.9 03:49:51 10° NW 03:52:51 38° NNE 03:55:35 12° E
STARLINK-1307 4.0 03:50:47 10° NW 03:54:10 41° NNE 03:57:15 12° E
Cosmos 773 Rocket 4.0 03:50:19 10° NNW 03:55:33 85° ENE 04:00:49 10° SSE
Cosmos 1484 Rocket 2.7 03:51:40 10° SSE 03:55:37 74° ENE 03:59:26 10° N
STARLINK-29 4.0 03:53:18 10° W 03:56:32 48° NNW 03:59:46 10° NE
Cosmos 1825 4.0 03:53:09 10° NW 03:56:39 32° WSW 04:00:12 10° S
STARLINK-1290 4.0 03:53:30 10° NW 03:56:53 42° NNE 03:59:53 13° E
ATLAS 2AS CENTAUR R/B 3.2 03:51:53 10° SW 03:57:45 37° SSE 04:03:39 11° E
Sich 1 4.1 03:55:00 10° NE 03:58:37 25° E 04:02:19 10° SSE
STARLINK-1297 3.9 03:56:08 10° NW 03:59:32 43° NNE 04:02:25 13° E
Cosmos 2322 4.0 03:54:24 10° N 03:59:53 50° ENE 04:05:24 10° SE
STARLINK-26 3.5 03:56:38 10° WNW 04:00:06 59° NNE 04:03:00 14° E
CZ-2C R/B 3.2 03:56:01 10° S 04:00:36 49° WSW 04:05:03 10° NW
STARLINK-28 3.3 03:59:17 10° WNW 04:02:31 59° NNE 04:05:06 15° E
Cosmos 2360 Rocket 2.2 03:57:13 10° NNW 04:02:56 85° ENE 04:08:42 10° SSE
Cosmos 2056 Rocket 3.9 03:58:24 10° SSW 04:03:36 44° SE 04:08:41 10° NE
PSLV R/B 4.4 04:00:13 10° SSE 04:04:14 41° E 04:08:09 10° N
STARLINK-41 3.4 04:01:42 10° WNW 04:04:51 52° NNE 04:07:16 16° E
SJ-12 4.0 04:01:17 10° SSE 04:05:27 58° E 04:09:32 10° N
STARLINK-48 4.4 04:02:32 10° NW 04:06:11 36° NNE 04:09:06 15° E
Cosmos 1346 Rocket 3.2 04:03:26 10° NNE 04:07:12 43° E 04:11:03 10° SSE
Cosmos 2333 4.4 04:02:53 10° N 04:08:33 55° ENE 04:14:10 10° SE
Cosmos 1980 Rocket 3.9 04:06:52 10° W 04:11:30 25° SW 04:16:09 10° SSE
Meteor 2-20 4.5 04:05:20 10° S 04:11:38 80° ESE 04:17:51 10° NNE
CZ-4B R/B 3.1 04:08:38 10° SSE 04:12:58 88° E 04:17:28 10° NNW
Meteor PRIRODA 3.6 04:10:37 10° SSE 04:14:23 76° ENE 04:18:07 10° N
CZ-2C R/B 3.9 04:12:08 13° E 04:15:06 19° SE 04:18:50 10° S
STARLINK-1291 3.5 04:13:31 10° NW 04:16:51 52° NNE 04:18:57 20° E
STARLINK-1317 3.6 04:13:46 10° WNW 04:17:19 56° NNE 04:19:38 20° E
STARLINK-1264 3.5 04:15:23 10° NW 04:18:44 53° NNE 04:20:47 21° E
SKYMED 2 4.2 04:14:32 10° N 04:18:53 60° WNW 04:23:18 10° SSW
STARLINK-33 3.1 04:16:56 10° WNW 04:20:12 66° NNE 04:22:07 23° E
STARLINK-1267 3.5 04:17:17 10° WNW 04:20:38 54° NNE 04:22:39 22° E
STARLINK-1272 3.5 04:19:09 10° WNW 04:22:31 55° NNE 04:24:28 23° E
STARLINK-64 4.2 04:20:01 10° NW 04:23:19 35° NNE 04:25:13 20° E
ALOS 2.4 04:18:46 10° SSE 04:23:34 79° WSW 04:28:17 10° NNW
H-2A R/B 2.4 04:19:42 10° SSE 04:24:01 84° ENE 04:28:06 10° NNW
STARLINK-1207 3.4 04:21:02 10° WNW 04:24:25 56° NNE 04:26:18 24° E
Cosmos 1666 Rocket 4.3 04:21:00 10° NNE 04:24:51 30° E 04:27:46 15° SE
Cosmos 1340 2.7 04:21:10 10° NNW 04:24:59 86° WSW 04:28:53 10° SSE
CZ-4B DEB 4.4 04:20:08 10° SSE 04:25:35 53° E 04:31:00 10° N
STARLINK-1266 3.4 04:22:59 10° WNW 04:26:22 58° NNE 04:28:11 25° E
Cosmos 2219 Rocket 2.4 04:21:05 10° N 04:26:36 54° ENE 04:31:16 15° SE
Cosmos 1633 Rocket 4.0 04:23:17 10° NNE 04:27:05 28° E 04:29:25 18° SE
Iridium 4 Rocket 4.3 04:21:53 10° NNW 04:27:08 55° W 04:32:01 10° S
STARLINK-1284 3.4 04:24:57 10° WNW 04:28:21 59° NNE 04:30:05 26° E
SeaSat 1 4.0 04:27:40 16° SE 04:28:44 17° SSE 04:31:51 10° S
STARLINK-66 3.1 04:25:37 10° WNW 04:28:54 71° NNE 04:30:29 28° E
Meteor 2-6 Rocket 4.3 04:23:55 10° SSW 04:29:26 80° W 04:35:00 10° N
Cosmos 1680 Rocket 3.9 04:24:46 10° N 04:29:47 44° ENE 04:33:39 16° SE
STARLINK-1258 3.4 04:26:51 10° WNW 04:30:15 60° NNE 04:31:55 27° E
STARLINK-1292 3.3 04:28:49 10° WNW 04:32:13 61° NNE 04:33:49 28° E
Cosmos 923 Rocket 4.1 04:27:15 10° N 04:32:32 59° ENE 04:37:07 14° SSE
PAYLOAD B 4.4 04:27:12 10° SSE 04:32:41 52° E 04:38:04 10° N
Cosmos 1452 Rocket 4.2 04:29:06 10° SSW 04:33:55 33° SE 04:37:05 18° ENE
STARLINK-1338 3.5 04:30:23 10° W 04:34:02 68° NNW 04:36:25 20° ENE
STARLINK-1274 3.3 04:30:48 10° WNW 04:34:14 62° NNE 04:35:45 30° E
Cosmos 1782 4.4 04:30:46 10° SSW 04:34:34 39° W 04:38:20 10° NNW
CZ-4C R/B 3.5 04:28:51 10° WSW 04:35:25 36° SSW 04:39:28 18° SE
STARLINK-1289 3.3 04:32:50 10° WNW 04:36:15 63° NNE 04:37:43 31° E
FALCON 9 DEB 4.2 04:33:12 10° W 04:36:37 43° NNW 04:39:35 13° NE
Cosmos 1420 Rocket 4.3 04:32:20 10° SSW 04:37:33 45° SE 04:42:40 10° NE
Cosmos 1500 Rocket 4.1 04:33:51 10° NNW 04:38:12 60° WSW 04:42:36 10° S
STARLINK-1303 3.3 04:34:47 10° WNW 04:38:13 64° NNE 04:39:37 32° E
STARLINK-1287 4.5 04:34:43 10° NW 04:38:37 37° NNE 04:40:24 25° E
STARLINK-1371 3.6 04:35:46 10° W 04:39:25 65° NNW 04:41:37 22° ENE
Cosmos 1447 Rocket 4.5 04:33:19 10° S 04:39:48 74° ESE 04:46:11 10° NNE
STARLINK-75 3.0 04:36:43 10° WNW 04:39:58 74° NNE 04:41:08 37° E
STARLINK-1312 3.3 04:36:46 10° WNW 04:40:13 66° NNE 04:41:32 34° E
Cosmos 1862 3.3 04:36:31 10° N 04:40:33 69° E 04:44:38 10° SSE
STARLINK-1341 3.6 04:38:25 10° W 04:42:06 64° NNW 04:44:13 23° ENE
Cosmos 2322 Rocket 3.4 04:38:06 10° WNW 04:43:25 38° SW 04:48:48 10° SSE
Envisat 3.7 04:41:07 20° SE 04:43:51 32° E 04:48:27 10° NNE
STARLINK-1374 3.6 04:41:02 10° W 04:44:42 63° NNW 04:46:42 24° NE
Cosmos 2297 4.2 04:40:20 10° SSW 04:45:41 40° SE 04:48:34 24° E
STARLINK-58 3.2 04:43:35 10° WNW 04:46:48 59° NNE 04:47:38 42° ENE
STARLINK-1339 3.7 04:43:43 10° W 04:47:23 61° NNW 04:49:19 25° NE
Cosmos 1238 Rocket 3.3 04:44:09 10° NNE 04:48:04 35° E 04:48:24 34° E
NOSS 0 Rocket 4.4 04:42:22 10° N 04:48:10 41° ENE 04:51:20 24° ESE
Cosmos 1805 Rocket 3.5 04:44:01 10° N 04:48:28 89° E 04:53:00 10° SSE
STARLINK-1302 4.3 04:44:33 10° NW 04:48:32 41° NNE 04:49:59 30° ENE
STARLINK-22 3.0 04:46:19 10° WNW 04:49:36 73° NNE 04:50:24 47° E
STARLINK-1377 3.7 04:46:03 10° W 04:49:42 60° NNW 04:51:30 27° NE
Meteor 1-27 Rocket 3.8 04:45:11 10° SSW 04:51:09 84° ESE 04:57:07 10° NNE
USA 234 3.3 04:47:01 23° ESE 04:51:29 89° NNE 04:58:08 10° WNW
MOS 1 Rocket 4.0 04:51:50 30° ESE 04:51:58 30° ESE 04:56:14 10° S
Cosmos 1812 2.9 04:48:13 10° SSW 04:52:11 76° W 04:56:04 10° N
STARLINK-1353 3.7 04:48:44 10° W 04:52:22 58° NNW 04:54:05 28° NE
STARLINK 1040 2.3 04:50:04 10° W 04:52:46 89° SE 04:52:48 86° E
STARLINK-1273 4.2 04:49:29 10° NW 04:53:30 43° NNE 04:54:46 33° ENE
STARLINK-1320 3.7 04:50:39 10° W 04:53:46 48° NNW 04:54:59 30° NE
STARLINK-1322 3.7 04:50:58 10° W 04:54:05 48° NNW 04:55:18 30° NE
STARLINK-1324 3.7 04:51:20 10° W 04:54:26 48° NNW 04:55:38 30° NE
Cosmos 2173 Rocket 4.4 04:48:58 10° NNE 04:54:42 39° E 05:00:25 10° SSE
STARLINK-1294 3.7 04:51:41 10° W 04:54:46 47° NNW 04:55:55 31° NNE
STARLINK-1261 3.7 04:52:00 10° W 04:55:06 47° NNW 04:56:16 30° NNE
STARLINK-80 3.4 04:51:23 10° WNW 04:55:16 78° NNE 04:56:25 44° E
Cosmos 1461 3.3 04:51:24 10° SW 04:55:22 58° NW 04:59:14 10° NNE
STARLINK-1375 3.8 04:51:44 10° W 04:55:24 57° NNW 04:57:03 29° NE
STARLINK-1325 3.7 04:52:19 10° W 04:55:25 47° NNW 04:56:35 30° NNE
STARLINK-43 3.3 04:51:45 10° W 04:55:31 89° SSW 04:56:34 46° E
STARLINK-1333 3.7 04:52:42 10° W 04:55:49 47° NNW 04:56:57 31° NNE
STARLINK-1334 3.7 04:53:01 10° W 04:56:08 47° NNW 04:57:16 31° NNE
STARLINK-1326 3.8 04:53:22 10° W 04:56:28 47° NNW 04:57:35 31° NNE
STARLINK-1323 3.8 04:53:40 10° W 04:56:47 46° NNW 04:57:54 31° NNE
STARLINK-1349 3.8 04:54:03 10° W 04:57:09 46° NNW 04:58:15 31° NNE
COSMOS 2455 3.9 04:52:13 10° SW 04:57:19 27° SSE 04:58:54 24° SE
COSMOS 2428 2.7 04:51:35 10° NNW 04:57:21 77° ENE 05:01:20 21° SE
STARLINK-1336 3.8 04:54:22 10° W 04:57:28 46° NNW 04:58:33 31° NNE
STARLINK-1350 3.8 04:54:08 10° W 04:57:45 55° NNW 04:59:16 30° NE
STARLINK-1331 3.8 04:54:45 10° W 04:57:51 46° NNW 04:58:55 31° NNE
STARLINK-1344 3.8 04:55:06 10° W 04:58:12 46° NNW 04:59:15 32° NNE
STARLINK-1288 4.2 04:54:24 10° NW 04:58:26 46° NNE 04:59:32 36° ENE
STARLINK-1343 3.8 04:55:22 10° W 04:58:28 46° NNW 04:59:31 32° NNE
STARLINK-1346 3.8 04:55:48 10° W 04:58:51 45° NNW 04:59:51 32° NNE
CZ-2C R/B 4.4 04:58:30 34° ESE 04:58:54 35° ESE 05:03:18 10° S
STARLINK-1328 3.8 04:56:04 10° W 04:59:09 45° NNW 05:00:11 32° NNE
STARLINK-1354 3.8 04:56:23 10° W 04:59:29 45° NNW 05:00:30 32° NNE
STARLINK-1347 3.8 04:56:45 10° W 04:59:51 45° NNW 05:00:50 32° NNE
STARLINK-1357 3.8 04:57:05 10° W 05:00:10 45° NNW 05:01:09 32° NNE
STARLINK-1352 3.8 04:56:52 10° W 05:00:29 54° NNW 05:01:54 32° NE
STARLINK-1335 3.8 04:57:29 10° W 05:00:34 44° NNW 05:01:32 33° NNE
STARLINK-1327 3.8 04:57:45 10° W 05:00:50 44° NNW 05:01:48 33° NNE
STARLINK-1340 3.8 04:58:05 10° W 05:01:10 44° NNW 05:02:08 33° NNE
STARLINK-1356 3.9 04:58:26 10° W 05:01:31 44° NNW 05:02:27 33° NNE
STARLINK-1345 3.9 04:58:46 10° W 05:01:51 44° NNW 05:02:47 33° NNE
Cosmos 1459 Rocket 4.3 04:56:03 10° NNE 05:01:54 43° E 05:07:53 10° SSE
STARLINK-1355 3.9 04:59:06 10° W 05:02:11 44° NNW 05:03:06 33° NNE
Cosmos 1624 Rocket 4.2 04:57:07 10° SSW 05:02:25 76° WNW 05:07:41 10° NNE
STARLINK-1321 3.9 04:59:28 10° W 05:02:33 43° NNW 05:03:27 33° NNE
STARLINK-1358 3.9 04:59:47 10° W 05:02:51 43° NNW 05:03:45 33° NNE
ATLAS 5 CENTAUR R/B 3.3 04:56:59 10° N 05:03:11 33° ENE 05:04:51 30° E
STARLINK-1368 3.9 04:59:36 10° W 05:03:14 53° NNW 05:04:33 33° NE
STARLINK-1332 3.9 05:00:11 10° W 05:03:15 43° NNW 05:04:08 33° NNE
STARLINK-1308 4.1 04:59:22 10° NW 05:03:25 49° NNE 05:04:21 40° ENE
STARLINK-1348 3.9 05:00:29 10° W 05:03:33 43° NNW 05:04:25 34° NNE
DMSP B5D2-2 4.5 05:01:50 29° ENE 05:03:46 39° ESE 05:08:40 10° S
STARLINK-1330 3.9 05:00:47 10° W 05:03:52 43° NNW 05:04:43 34° NNE
STARLINK-1283 3.3 05:00:11 10° WNW 05:04:04 82° N 05:04:52 54° E
STARLINK-1363 3.9 05:01:12 10° W 05:04:16 43° NNW 05:05:07 34° NNE
Cosmos 2242 Rocket 4.0 05:00:08 10° S 05:04:28 40° ESE 05:04:28 40° ESE
STARLINK-1337 3.9 05:01:29 10° W 05:04:32 42° NNW 05:05:23 34° NNE
CZ-4B R/B 3.1 04:59:17 10° SSE 05:04:46 68° ENE 05:10:16 10° N
STARLINK-1342 3.9 05:01:49 10° W 05:04:53 42° NNW 05:05:42 34° NNE
STARLINK-1364 3.9 05:02:08 10° W 05:05:13 42° NNW 05:06:01 34° NNE
STARLINK-1311 2.7 05:02:10 10° WNW 05:05:12 80° N 05:05:12 80° N
STARLINK-1376 3.9 05:02:31 10° W 05:05:35 42° NNW 05:06:22 34° NNE
STARLINK-1360 3.9 05:02:49 10° W 05:05:53 42° NNW 05:06:40 34° NNE
STARLINK-1369 3.9 05:02:22 10° W 05:05:59 51° NNW 05:07:12 34° NNE
STARLINK-1361 4.0 05:03:09 10° W 05:06:13 42° NNW 05:06:59 34° NNE
Lacrosse 5 rocket 3.9 05:04:35 10° NNE 05:04:38 10° NNE 05:04:38 10° NNE
STARLINK-1367 4.0 05:03:32 10° W 05:06:33 41° NNW 05:07:16 34° NNE
STARLINK-1366 4.0 05:03:54 10° W 05:06:57 41° NNW 05:07:42 34° NNE
Cosmos 1943 Rocket 2.9 05:02:06 10° SSW 05:07:05 31° SE 05:07:27 31° SE
Cosmos 371 Rocket 3.4 05:02:37 10° SSW 05:07:24 51° ESE 05:08:53 38° ENE
Cosmos 1707 Rocket 4.1 05:02:56 10° SSW 05:07:24 61° W 05:11:47 10° N
CORIOLIS 4.5 05:05:50 28° SE 05:08:17 44° E 05:13:30 10° N
Cosmos 2369 Rocket 3.2 05:03:35 10° SSW 05:08:28 27° SE 05:08:42 27° SE
STARLINK-1372 4.0 05:05:10 10° W 05:08:46 50° NNW 05:09:54 35° NNE
Cosmos 2237 Rocket 2.5 05:04:21 10° N 05:09:42 44° ENE 05:11:03 38° ESE
STARLINK-61 4.1 05:06:24 10° NW 05:10:09 41° NNE 05:10:27 40° NE
STARLINK-42 2.9 05:08:00 10° W 05:11:15 86° NNW 05:11:15 86° NNW
STARLINK-1316 2.9 05:08:10 10° WNW 05:11:15 78° NNW 05:11:15 78° NNW
STARLINK-1378 4.1 05:08:12 10° W 05:11:50 48° NNW 05:12:53 36° NNE
STARLINK-1257 2.9 05:09:05 10° WNW 05:12:08 77° NW 05:12:08 77° NW
SL-16 R/B 3.9 05:08:22 10° W 05:13:06 26° SW 05:17:24 12° SSE
STARLINK-1256 3.0 05:09:58 10° WNW 05:13:00 75° NW 05:13:00 75° NW
STARLINK-1304 3.9 05:09:14 10° NW 05:13:20 53° NNE 05:13:54 49° NE
Cosmos 1470 Rocket 4.1 05:09:41 10° NNE 05:13:11 40° ENE 05:13:11 40° ENE
STARLINK-1329 4.1 05:10:30 10° W 05:14:04 47° NNW 05:15:02 37° NNE
STARLINK-1213 3.0 05:10:53 10° WNW 05:13:52 74° NW 05:13:52 74° NW
NOAA 12 4.3 05:12:37 37° ESE 05:14:06 46° E 05:19:10 10° N
STARLINK-1379 4.1 05:10:46 10° W 05:14:20 47° NNW 05:15:16 37° NNE
STARLINK-1263 3.1 05:11:47 10° WNW 05:14:44 72° NW 05:14:44 72° NW
STARLINK-1286 3.8 05:11:28 10° NW 05:15:37 56° NNE 05:16:08 51° NE
STARLINK-1259 3.1 05:12:40 10° WNW 05:15:36 71° WNW 05:15:36 71° WNW
STARLINK-1265 3.1 05:13:12 10° WNW 05:16:03 68° WNW 05:16:03 68° WNW
STARLINK-1285 3.1 05:13:34 10° WNW 05:16:27 69° WNW 05:16:27 69° WNW
STARLINK-1362 4.2 05:13:40 10° W 05:17:17 46° NNW 05:18:11 37° NNE
STARLINK-1268 3.2 05:14:12 10° WNW 05:17:02 67° WNW 05:17:02 67° WNW
STARLINK-1365 4.2 05:13:54 10° W 05:17:30 45° NNW 05:18:25 36° NNE
STARLINK-1296 3.2 05:15:24 10° W 05:18:13 65° WNW 05:18:13 65° WNW
ATLAS CENTAUR R/B 2.5 05:14:21 10° SW 05:18:35 35° SSE 05:18:35 35° SSE
AQUARIUS 4.2 05:18:31 52° ESE 05:19:13 58° E 05:23:42 10° N
STARLINK-1260 3.3 05:16:18 10° W 05:19:04 63° WNW 05:19:04 63° WNW
STARLINK-1373 4.2 05:16:28 10° W 05:20:04 44° NNW 05:20:51 38° N
STARLINK-1318 3.3 05:17:13 10° W 05:19:57 62° WNW 05:19:57 62° WNW
STARLINK-1275 3.4 05:18:04 10° W 05:20:46 60° WNW 05:20:46 60° WNW
Cosmos 1862 Rocket 3.6 05:16:49 10° SSW 05:21:26 86° W 05:26:00 10° N
STARLINK-1309 3.4 05:18:58 10° W 05:21:39 59° WNW 05:21:39 59° WNW
STARLINK-1390 4.2 05:19:10 10° W 05:22:43 43° NNW 05:23:22 38° N
NOSS 3-4 (A) 3.7 05:15:37 10° SW 05:23:05 66° SE 05:25:49 38° ENE
STARLINK-1282 3.5 05:19:53 10° W 05:22:32 57° WNW 05:22:32 57° WNW
NOSS 3-4 (C) 3.7 05:15:43 10° SW 05:23:11 65° SE 05:25:53 38° ENE
STARLINK-1313 3.6 05:20:56 10° W 05:23:32 56° W 05:23:32 56° W
STARLINK-62 3.5 05:21:16 10° WNW 05:23:57 57° WNW 05:23:57 57° WNW
STARLINK-1279 3.6 05:21:54 10° W 05:24:28 54° W 05:24:28 54° W
SL-16 R/B 4.0 05:21:01 10° NNE 05:22:27 16° NE 05:22:27 16° NE
STARLINK-1298 3.7 05:22:35 10° W 05:25:07 53° WNW 05:25:07 53° WNW
STARLINK-1029 3.7 05:22:44 10° WNW 05:25:14 50° NW 05:25:14 50° NW
Okean O Rocket 1.7 05:23:38 23° S 05:26:25 78° WSW 05:30:52 10° NNW
STARLINK-34 3.6 05:23:11 10° WNW 05:25:50 54° WNW 05:25:50 54° WNW
STARLINK-1293 3.7 05:23:31 10° W 05:26:02 51° WNW 05:26:02 51° WNW
H-2A R/B 3.0 05:25:18 33° S 05:26:56 67° WSW 05:30:49 10° NNW
Cosmos 158 Rocket 4.0 05:22:08 10° NNW 05:27:23 83° WSW 05:30:07 30° SSE
STARLINK-1301 3.4 05:24:13 10° W 05:27:22 68° WNW 05:27:22 68° WNW
STARLINK-55 3.7 05:24:54 10° W 05:27:31 53° W 05:27:31 53° W
Cosmos 1802 Rocket 4.1 05:21:58 10° NNE 05:28:14 54° E 05:34:32 10° SSE
STARLINK-1255 3.8 05:25:18 10° W 05:27:44 48° W 05:27:44 48° W
Radarsat 4.5 05:26:38 39° SE 05:28:32 64° ENE 05:33:44 10° N
Cosmos 2346 Rocket 4.4 05:22:55 10° S 05:29:02 59° ESE 05:35:03 10° NNE
STARLINK-1299 3.7 05:25:12 10° WNW 05:29:30 67° NNE 05:29:37 67° NNE
Cosmos 2278 Rocket 3.2 05:24:28 10° SW 05:29:56 47° WNW 05:35:20 10° N
STARLINK-1306 3.7 05:25:45 10° WNW 05:29:59 64° NNE 05:30:01 64° NNE
Cosmos 2333 Rocket 2.6 05:24:20 10° NW 05:30:05 62° SW 05:33:32 25° SSE
Cosmos 2112 Rocket 4.1 05:25:33 10° NNW 05:30:54 79° WSW 05:33:30 31° SSE
STARLINK-1307 3.6 05:27:35 10° W 05:30:38 63° WNW 05:30:38 63° WNW
STARLINK-1281 3.8 05:29:02 10° WNW 05:33:02 62° N 05:33:02 62° N
STARLINK-1290 3.7 05:30:18 10° W 05:33:15 58° W 05:33:15 58° W
SMAP 2.9 05:32:35 44° SSE 05:34:08 84° ENE 05:38:51 10° NNW
Sich 1 4.1 05:31:49 10° NW 05:36:04 45° WSW 05:40:11 11° S
STARLINK-1297 3.9 05:32:57 10° W 05:35:48 54° W 05:35:48 54° W
STARLINK-26 4.0 05:33:29 10° W 05:36:13 51° W 05:36:13 51° W
STARLINK-1310 3.9 05:34:00 10° WNW 05:37:49 62° NNW 05:37:49 62° NNW
STARLINK-28 4.4 05:35:18 10° W 05:37:31 39° W 05:37:31 39° W
STARLINK-1319 4.0 05:38:57 10° WNW 05:42:36 59° NNW 05:42:36 59° NNW
STARLINK-48 4.0 05:40:36 10° WNW 05:43:52 58° WNW 05:43:52 58° WNW
Tsikada Rocket 4.0 05:40:48 10° S 05:47:17 63° ESE 05:48:35 52° ENE
Cosmos 2360 Rocket 3.9 05:42:46 10° W 05:47:38 28° SW 05:50:57 17° S
STARLINK-1277 4.1 05:43:54 10° WNW 05:47:22 56° NW 05:47:22 56° NW
ATLAS 2AS CENTAUR R/B 2.5 05:42:58 10° SW 05:49:28 79° SE 05:51:06 55° ENE
Meteor 1-19 Rocket 4.1 05:46:08 10° S 05:51:11 66° SE 05:51:11 66° SE
STARLINK-1276 4.3 05:48:53 10° WNW 05:52:09 51° NW 05:52:09 51° NW
CZ-2C R/B 2.5 05:53:39 60° NNE 05:54:42 84° ESE 06:00:09 10° SSW
Cosmos 1980 Rocket 4.4 05:55:01 10° SW 05:57:42 13° S 05:59:01 12° S
Cosmos 1818 3.5 05:55:37 10° NW 06:00:42 78° N 06:00:42 78° N
Cosmos 332 Rocket 4.0 05:56:41 10° SSW 06:01:02 68° SW 06:01:02 68° SW
Cosmos 1633 Rocket 4.3 06:00:28 10° NW 06:04:43 41° WSW 06:06:32 28° SSW
SeaSat 1 3.8 06:07:27 30° S 06:07:27 30° S 06:10:10 10° SSW
Meteor 1-18 Rocket 4.2 06:00:57 10° SSW 06:06:44 81° W 06:08:02 55° N
Meteor 1-25 Rocket 4.2 06:02:52 10° N 06:07:53 73° NNW 06:07:53 73° NNW
Cosmos 2100 Rocket 4.2 06:04:22 10° NNW 06:10:35 68° WSW 06:16:49 10° S
Cosmos 2219 Rocket 3.4 06:05:28 10° WNW 06:10:49 39° SW 06:13:00 29° S
Cosmos 1452 Rocket 4.2 06:11:08 10° SSW 06:16:20 53° WNW 06:17:29 44° NNW
Envisat 3.9 06:21:19 34° SSW 06:23:03 47° WSW 06:27:57 10° NW
CZ-4C R/B 3.4 06:19:27 10° SW 06:24:38 34° S 06:24:38 34° S
Cosmos 1980 4.1 06:19:53 10° NW 06:25:33 61° SW 06:25:39 61° SW
Cosmos 2061 Rocket 4.0 06:21:02 10° NNW 06:27:20 76° WSW 06:28:12 65° SSW
Cosmos 2322 Rocket 4.4 06:25:43 10° WSW 06:29:13 16° SSW 06:30:39 15° S
Cosmos 2297 4.3 06:24:33 10° SW 06:30:04 52° WNW 06:30:33 50° NW
USA 234 3.4 06:34:22 65° S 06:34:23 65° S 06:40:56 10° W
Cosmos 2016 Rocket 4.3 06:31:38 10° NNW 06:37:55 67° WSW 06:39:15 54° SSW
COSMOS 2428 4.2 06:37:09 10° W 06:42:14 30° SW 06:43:22 28° SSW
COSMOS 2455 3.9 06:38:19 10° SW 06:42:03 38° SSW 06:42:03 38° SSW
ATLAS 5 CENTAUR R/B 2.9 06:40:36 10° NW 06:46:25 62° WNW 06:46:25 62° WNW
Cosmos 1943 Rocket 3.4 06:45:45 10° SW 06:48:59 35° SW 06:48:59 35° SW
Cosmos 2369 Rocket 3.6 06:47:27 10° SSW 06:50:30 33° SSW 06:50:30 33° SSW
Cosmos 2237 Rocket 3.3 06:48:22 10° WNW 06:52:55 42° WSW 06:52:55 42° WSW
ATLAS CENTAUR R/B 4.0 06:53:14 10° SW 06:54:47 21° SW 06:54:47 21° SW
Okean O Rocket 4.4 07:01:05 14° SW 07:02:04 15° SW 07:04:29 10° W
SL-16 R/B 4.5 07:03:27 10° NW 07:04:24 15° NW 07:04:24 15° NW
Cosmos 2333 Rocket 4.3 07:11:11 10° WSW 07:15:33 21° SSW 07:15:33 21° SSW
ATLAS 2AS CENTAUR R/B 4.1 07:34:09 10° WSW 07:38:35 30° W 07:38:35 30° W
